Location: B?jaj?g
(11.7167°N, 92.6667°E)
Time: 21:45:53
(UTC+00:00)

Meteor 1-23 Rocket - Pass Details

Date: 18 September 2020
Orbit: 835 x 890 km, 81.3° (Epoch: 30 October)

Event Time Altitude Azimuth Distance (km) Brightness Sun altitude
Rises 12:06:08 0° 358° (N) 3,388 7.4 -5.3°
Reaches altitude 10° 12:08:34 10° 0° (N) 2,448 6.7 -5.9°
Maximum altitude 12:14:05 72° 84° (E) 876 4.1 -7.2°
Drops below altitude 10° 12:19:35 10° 169° (SSE) 2,439 6.5 -8.6°
Sets 12:21:59 0° 171° (S) 3,375 7.2 -9.1°
